SBI5019 UNNT-USSS

Flight info

Callsign SBI5019
Flight time N/A
Altitude 36000
Route OGAMA A308 ML A300 RUBOR T448 SOPUS P135 BEGMA
Aircraft A320/M-SDE2E3FGHIRWXY/LB1

Departure

Time 2026-05-05 06:05
Airport Novosibirsk Tolmachevo Airport (UNNT)

Arrival

Time N/A
Airport Koltsovo Airport (USSS)
Time Latitude Longitude Altitude Speed Heading
2026-05-05 06:05 55.11144 82.34730 10514 ft 280 kts 311°
2026-05-05 06:05 55.12624 82.32310 10738 ft 303 kts 312°
2026-05-05 06:05 55.14207 82.29719 11135 ft 318 kts 312°
2026-05-05 06:06 55.15839 82.27059 11818 ft 323 kts 313°
2026-05-05 06:06 55.17491 82.24370 12552 ft 326 kts 313°
2026-05-05 06:06 55.19159 82.21656 13295 ft 329 kts 313°
2026-05-05 06:06 55.20811 82.18860 13990 ft 331 kts 308°
2026-05-05 06:07 55.22116 82.15558 14601 ft 330 kts 295°
2026-05-05 06:07 55.23050 82.11878 15255 ft 332 kts 291°
2026-05-05 06:07 55.23968 82.08147 15927 ft 334 kts 292°
2026-05-05 06:07 55.24892 82.04399 16599 ft 336 kts 292°
2026-05-05 06:08 55.25823 82.00619 17267 ft 339 kts 292°
2026-05-05 06:08 55.26759 81.96811 17941 ft 341 kts 291°
2026-05-05 06:08 55.27701 81.92974 18565 ft 344 kts 291°
2026-05-05 06:08 55.28636 81.89154 19133 ft 346 kts 291°
2026-05-05 06:09 55.29588 81.85254 19710 ft 349 kts 291°
2026-05-05 06:09 55.30549 81.81313 20268 ft 352 kts 292°
2026-05-05 06:09 55.31514 81.77351 20804 ft 354 kts 291°
2026-05-05 06:09 55.32484 81.73360 21324 ft 357 kts 292°
2026-05-05 06:10 55.33464 81.69331 21835 ft 360 kts 292°
2026-05-05 06:10 55.34451 81.65273 22324 ft 363 kts 292°
2026-05-05 06:10 55.35445 81.61172 22801 ft 366 kts 291°
2026-05-05 06:10 55.36441 81.57038 23268 ft 369 kts 291°
2026-05-05 06:11 55.37438 81.52878 23704 ft 372 kts 291°
2026-05-05 06:11 55.38449 81.48662 24091 ft 374 kts 292°
2026-05-05 06:11 55.39467 81.44436 24472 ft 376 kts 292°
2026-05-05 06:11 55.40488 81.40198 24857 ft 378 kts 292°
2026-05-05 06:12 55.41516 81.35927 25233 ft 379 kts 292°
2026-05-05 06:12 55.42545 81.31645 25607 ft 381 kts 292°
2026-05-05 06:12 55.43576 81.27343 25966 ft 383 kts 292°
2026-05-05 06:12 55.44612 81.23006 26324 ft 384 kts 292°
2026-05-05 06:13 55.45645 81.18663 26673 ft 386 kts 292°
2026-05-05 06:13 55.46672 81.14277 27015 ft 387 kts 290°
2026-05-05 06:13 55.47413 81.09709 27348 ft 389 kts 284°
2026-05-05 06:13 55.48055 81.05063 27677 ft 391 kts 284°
2026-05-05 06:14 55.48696 81.00404 28002 ft 392 kts 284°
2026-05-05 06:14 55.49342 80.95715 28310 ft 394 kts 284°
2026-05-05 06:14 55.49991 80.91011 28616 ft 395 kts 284°
2026-05-05 06:14 55.50633 80.86356 28901 ft 396 kts 284°
2026-05-05 06:15 55.51287 80.81610 29181 ft 398 kts 284°
2026-05-05 06:15 55.51937 80.76858 29456 ft 399 kts 284°
2026-05-05 06:15 55.52584 80.72087 29738 ft 401 kts 284°
2026-05-05 06:15 55.53229 80.67299 30074 ft 400 kts 284°
2026-05-05 06:16 55.53878 80.62467 30404 ft 398 kts 284°
2026-05-05 06:16 55.54516 80.57712 30720 ft 397 kts 284°
2026-05-05 06:16 55.55152 80.52973 31023 ft 397 kts 284°
2026-05-05 06:16 55.55779 80.48300 31318 ft 396 kts 284°
2026-05-05 06:17 55.56412 80.43570 31609 ft 395 kts 284°
2026-05-05 06:17 55.57040 80.38851 31904 ft 394 kts 284°
2026-05-05 06:17 55.57660 80.34131 32210 ft 394 kts 283°
2026-05-05 06:17 55.58277 80.29420 32517 ft 393 kts 283°
2026-05-05 06:18 55.58891 80.24718 32809 ft 392 kts 283°
2026-05-05 06:18 55.59507 80.20028 33112 ft 391 kts 283°
2026-05-05 06:18 55.60122 80.15348 33418 ft 390 kts 283°
2026-05-05 06:18 55.60733 80.10676 33720 ft 390 kts 283°
2026-05-05 06:19 55.61342 80.06011 34011 ft 389 kts 283°
2026-05-05 06:19 55.61945 80.01361 34264 ft 388 kts 283°
2026-05-05 06:19 55.62546 79.96700 34500 ft 388 kts 283°
2026-05-05 06:19 55.63142 79.92037 34724 ft 388 kts 283°
2026-05-05 06:20 55.63741 79.87373 34942 ft 388 kts 283°
2026-05-05 06:20 55.64344 79.82705 35158 ft 389 kts 283°
2026-05-05 06:20 55.64947 79.78042 35387 ft 389 kts 283°
2026-05-05 06:20 55.65549 79.73378 35606 ft 389 kts 283°
2026-05-05 06:21 55.66151 79.68709 35802 ft 389 kts 283°
2026-05-05 06:21 55.66752 79.64035 35937 ft 390 kts 283°
2026-05-05 06:21 55.67952 79.54653 35963 ft 391 kts 283°
2026-05-05 06:22 55.68548 79.49952 35964 ft 390 kts 283°